TimeEDT,TemperatureF,Dew PointF,Humidity,Sea Level PressureIn,VisibilityMPH,Wind Direction,Wind SpeedMPH,Gust SpeedMPH,PrecipitationIn,Events,Conditions,WindDirDegrees,DateUTC
12:56 AM,30.0,16.0,56,30.24,10.0,Calm,Calm,-,N/A,,Clear,0,2014-03-14 04:56:00
1:56 AM,28.9,16.0,58,30.26,10.0,Calm,Calm,-,N/A,,Clear,0,2014-03-14 05:56:00
2:56 AM,28.9,16.0,58,30.26,10.0,Calm,Calm,-,N/A,,Clear,0,2014-03-14 06:56:00
3:56 AM,26.1,17.1,69,30.26,10.0,Calm,Calm,-,N/A,,Clear,0,2014-03-14 07:56:00
4:56 AM,27.0,15.1,61,30.28,10.0,Calm,Calm,-,N/A,,Clear,0,2014-03-14 08:56:00
5:56 AM,26.1,17.1,69,30.29,10.0,Calm,Calm,-,N/A,,Clear,0,2014-03-14 09:56:00
6:56 AM,25.0,16.0,69,30.30,10.0,Calm,Calm,-,N/A,,Clear,0,2014-03-14 10:56:00
7:56 AM,28.9,18.0,64,30.32,10.0,Calm,Calm,-,N/A,,Clear,0,2014-03-14 11:56:00
8:56 AM,37.0,16.0,42,30.35,10.0,Variable,4.6,-,N/A,,Clear,0,2014-03-14 12:56:00
9:56 AM,43.0,17.1,35,30.35,10.0,South,10.4,-,N/A,,Clear,190,2014-03-14 13:56:00
10:56 AM,46.9,14.0,27,30.35,10.0,Variable,6.9,-,N/A,,Clear,0,2014-03-14 14:56:00
11:56 AM,50.0,10.9,21,30.33,10.0,Variable,6.9,-,N/A,,Clear,0,2014-03-14 15:56:00
12:56 PM,54.0,12.9,20,30.30,10.0,South,11.5,18.4,N/A,,Clear,190,2014-03-14 16:56:00
1:56 PM,57.0,15.1,19,30.27,10.0,South,9.2,19.6,N/A,,Clear,190,2014-03-14 17:56:00
2:56 PM,59.0,19.0,21,30.23,10.0,South,13.8,19.6,N/A,,Clear,190,2014-03-14 18:56:00
3:56 PM,59.0,17.1,20,30.20,10.0,South,18.4,25.3,N/A,,Clear,180,2014-03-14 19:56:00
4:56 PM,60.1,18.0,20,30.17,10.0,South,18.4,23.0,N/A,,Clear,180,2014-03-14 20:56:00
5:56 PM,57.9,19.0,22,30.14,10.0,South,15.0,20.7,N/A,,Clear,180,2014-03-14 21:56:00
6:56 PM,55.9,21.0,26,30.14,10.0,South,15.0,23.0,N/A,,Clear,190,2014-03-14 22:56:00
7:56 PM,53.1,26.1,35,30.13,10.0,South,13.8,-,N/A,,Clear,190,2014-03-14 23:56:00
8:56 PM,53.1,26.1,35,30.14,10.0,South,15.0,27.6,N/A,,Clear,190,2014-03-15 00:56:00
9:56 PM,53.1,27.0,37,30.13,10.0,SSW,13.8,23.0,N/A,,Clear,200,2014-03-15 01:56:00
10:56 PM,54.0,28.9,38,30.11,10.0,SSW,9.2,-,N/A,,Clear,200,2014-03-15 02:56:00
11:56 PM,54.0,28.9,38,30.09,10.0,SSW,8.1,-,N/A,,Clear,210,2014-03-15 03:56:00